#timestamp,LO_Frequency,Hit,StdDev 
1584463115.3,286047012.2,P
1584463135.1,286047011.5,P
1584463155.9,286047012.2,P
1584463175.7,286047012.2,Y
1584463195.6,286046998.2,P
1584463215.4,286047000.9,N
1584463235.2,286047001.2,N
1584463255.1,286047000.5,N
1584463256.0,286047000.5,N
1584463275.8,286047000.2,N
1584463295.6,286047000.2,N
1584463315.5,286047001.5,N
1584463335.3,286047002.7,N
1584463355.2,286047001.8,N
1584463375.9,286047001.3,N
1584463395.7,286047001.9,N
1584463415.6,286047004.0,N
1584463435.4,286047004.3,N
1584463455.2,286047003.0,N
1584463475.1,286047005.6,N
1584463476.0,286047005.6,N
1584463495.8,286047004.7,N
1584463515.7,286047005.4,N
1584463535.5,286047004.7,N
1584463555.3,286047007.6,N
1584463575.2,286047006.8,N
1584463595.0,286047006.1,N
1584463595.9,286047006.1,N
1584463615.8,286047006.5,N
1584463635.6,286047008.5,N
1584463655.4,286047008.6,N
1584463675.3,286047008.4,N
1584463695.1,286047008.2,N
1584463715.8,286047008.3,N
1584463735.7,286047008.0,N
1584463755.5,286047008.1,N
1584463775.4,286047009.5,Y
1584463795.2,286047007.3,P
1584463815.0,286047009.1,P
1584463815.9,286047009.1,P
1584463835.8,286047008.7,Y
1584463855.6,286047000.4,P
1584463875.5,286046999.9,N
1584463895.3,286047002.7,N
1584463915.1,286047002.6,N
1584463935.9,286047001.9,N
1584463955.7,286047001.9,N
1584463975.5,286047001.5,N
1584463995.4,286047001.7,N
1584464015.2,286047004.3,N
1584464035.1,286047001.7,N
1584464036.0,286047001.7,N
1584464055.8,286047001.8,N
1584464075.6,286047004.0,N
1584464095.5,286047002.9,N
1584464115.3,286047005.3,N
1584464135.2,286047005.5,N
1584464155.9,286047005.3,N
1584464175.7,286047004.6,N
1584464195.6,286047005.1,N
1584464215.4,286047007.4,Y
1584464235.3,286047003.6,P
1584464255.1,286047006.0,P
1584464256.0,286047006.0,P
1584464275.8,286047003.2,N
1584464295.7,286047003.1,N
1584464315.5,286047005.1,Y
1584464335.4,286047000.2,P
1584464355.2,286047000.2,N
1584464375.0,286047002.3,N
1584464375.9,286047002.3,N
1584464395.8,286047001.9,N
